Regional Weather Roundup
Issued by NWS

Home | Current Version | Previous Version | Text Only | Print | Product List | Glossary On
Versions: 1 2 3 4 5 6 7 8 9 10 11 12 13 14 15 16 17 18 19 20 21 22 23 24 25 26 27 28 29 30 31 32 33 34 35 36 37 38 39 40 41 42 43 44 45 46 47 48 49 50
000
ASCA42 TJSJ 220310
RWRPR
PUERTO RICO/U.S. VIRGIN ISLANDS HOURLY WEATHER ROUNDUP
NATIONAL WEATHER SERVICE SAN JUAN PR
1100 PM AST SAT APR 21 2018

PRZ001>002-007>008-010-220400-
PUERTO RICO

CITY           SKY/WX    TMP DP  RH WIND       PRES   REMARKS
SAN JUAN LMM   PTCLDY    79  72  78 E8        30.05R
CEIBA          CLEAR    N/A N/A N/A E10       30.06
$$

VIZ001>002-220400-
U.S. VIRGIN ISLANDS

CITY           SKY/WX    TMP DP  RH WIND       PRES   REMARKS
CHARLOTTE AMA  CLEAR     79  70  73 E9        30.03
CHRISTIANSTED  CLEAR     79  72  78 E13       30.04S
$$

HOURLY WEATHER ROUNDUP FOR THE NEWS MEDIA

CITY           SKY/WX    TMP DP  RH WIND       PRES   REMARKS
ORLANDO        FAIR      72  66  81 E13       30.18R
NEW YORK       MOCLDY    52  24  33 NW10      30.35R
NEWARK         MOCLDY    55  27  34 NW10      30.34R
CHICAGO        CLOUDY    47  16  29 E5        30.40R
HARTFORD       FAIR      38  34  85 CALM      30.28R
BOSTON         FAIR      46  32  58 E3        30.30R
DALLAS         CLOUDY    56  55  97 N18G26    30.01R FOG
PHILADELPHIA   MOCLDY    52  31  44 SW5       30.36S
LOS ANGELES    MOCLDY    61  53  75 W8        29.96S
WASHINGTON DC  CLOUDY    49  34  56 SE3       30.37S


USA.gov is the U.S. government's official web portal to all federal, state and local government web resources and services.